This is the latest recevied weather packets stored in our database for station/object N0FDH. If no packets are shown the sender has not sent any weather packets the latest 10 day(s).
| Time | Temp. | Humidity | Pressure | Rain* | Wind** | Luminosity | Snow |
|---|---|---|---|---|---|---|---|
| 1777803795 | 10° C | 71% | 1004.9 hPa | 0 mm | - | 0 W/m² | - |
| 1777803491 | 10° C | 71% | 1005.3 hPa | 0 mm | - | 0 W/m² | - |
| 1777803189 | 10° C | 74% | 1005.3 hPa | 0 mm | - | 0 W/m² | - |
| 1777802886 | 10° C | 72% | 1005.4 hPa | 0 mm | - | 0 W/m² | - |
| 1777802584 | 10° C | 74% | 1005.4 hPa | 0 mm | - | 0 W/m² | - |
| 1777802281 | 10° C | 75% | 1005.4 hPa | 0 mm | - | 0 W/m² | - |
| 1777801980 | 10.56° C | 74% | 1005.4 hPa | 0 mm | - | 0 W/m² | - |
| 1777801675 | 10.56° C | 71% | 1005.4 hPa | 0 mm | - | 0 W/m² | - |
| 1777801374 | 11.11° C | 70% | 1005.5 hPa | 0 mm | - | 0 W/m² | - |
| 1777801070 | 11.11° C | 70% | 1005.5 hPa | 0 mm | - | 0 W/m² | - |
| 1777800767 | 10.56° C | 71% | 1005.5 hPa | 0 mm | - | 0 W/m² | - |
| 1777800462 | 10.56° C | 74% | 1005.4 hPa | 0 mm | - | 0 W/m² | - |
| 1777800159 | 10.56° C | 75% | 1005.5 hPa | 0 mm | - | 0 W/m² | - |
| 1777799854 | 10° C | 74% | 1005.5 hPa | 0 mm | - | 0 W/m² | - |
| 1777799552 | 10.56° C | 75% | 1005.6 hPa | 0 mm | - | 0 W/m² | - |
| 1777799247 | 10° C | 75% | 1005.6 hPa | 0 mm | - | 0 W/m² | - |
| 1777798944 | 10° C | 77% | 1005.7 hPa | 0 mm | - | 0 W/m² | - |
| 1777798639 | 10° C | 80% | 1005.6 hPa | 0 mm | - | 0 W/m² | - |
| 1777798337 | 10° C | 80% | 1005.8 hPa | 0 mm | - | 0 W/m² | - |
| 1777798033 | 10° C | 77% | 1006 hPa | 0 mm | - | 0 W/m² | - |
| 1777797731 | 10.56° C | 75% | 1006.2 hPa | 0 mm | - | 0 W/m² | - |
| 1777797429 | 11.11° C | 72% | 1006.4 hPa | 0 mm | - | 0 W/m² | - |
| 1777797126 | 11.11° C | 67% | 1006.3 hPa | 0 mm | - | 0 W/m² | - |
| 1777796822 | 11.11° C | 63% | 1006.5 hPa | 0 mm | - | 0 W/m² | - |
| 1777796519 | 11.11° C | 62% | 1006.5 hPa | 0 mm | - | 0 W/m² | - |
* Rain latest hour (hover to see other rain measurements)
** Current wind speed in m/s (hover to see current wind gust speed)